Regional Weather Roundup
Issued by NWS

Home | Current Version | Previous Version | Text Only | Print | Product List | Glossary On
Versions: 1 2 3 4 5 6 7 8 9 10 11 12 13 14 15 16 17 18 19 20 21 22 23 24 25 26 27 28 29 30 31 32 33 34 35 36 37 38 39 40 41 42 43 44 45 46 47 48 49 50
000
ASUS44 KLIX 310510
RWRLA
LOUISIANA WEATHER ROUNDUP
NATIONAL WEATHER SERVICE NEW ORLEANS LA
1200 AM CDT FRI OCT 31 2014

NOTE: "FAIR" INDICATES FEW OR NO CLOUDS BELOW 12,000 FEET WITH NO
      SIGNIFICANT WEATHER AND/OR OBSTRUCTIONS TO VISIBILITY.
      SKY/WX - SKY CONDITION AND SIGNIFICANT WEATHER.
      TMP - AIR TEMPERATURE.    DP   - DEWPOINT TEMPERATURE.
      RH  - RELATIVE HUMIDITY.  PRES - PRESSURE.
      HX  - HEAT INDEX.         WCI  - WIND CHILL INDEX.

*  THESE STATIONS ARE NOT NWS OR FAA STATIONS AND ARE NOT UNDER
   NWS QUALITY CONTROL.

LAZ040-048-061>063-065-066-069-310600-
SOUTHEAST LOUISIANA

CITY           SKY/WX    TMP DP  RH WIND       PRES   REMARKS
N.O. AUDUBON     N/A     59  56  89 MISG        N/A
N.O. INTL ARPT CLEAR     56  49  77 W6        30.05S
N.O. LAKEFRONT CLEAR     68  46  45 N10       30.05S
N.O. DOWNTOWN* FAIR      66  41  39 N3        30.05F
SLIDELL        CLEAR     48  44  86 CALM      30.05S
BATON ROUGE    CLEAR     51  48  89 CALM      30.07S
BOOTHVILLE     CLEAR     63  52  67 CALM      30.04F
BELLE CHASSE   CLEAR     52  47  83 CALM      30.05R
BOGALUSA*        N/A     46  43  88 CALM      30.07S
NEW ROADS*     FAIR      50  47  92 CALM      30.08S
GONZALES*      FAIR      52  52  99 CALM      30.07S
HAMMOND*       CLEAR     50  45  81 CALM      30.08S
HOUMA*         CLEAR     52  51  97 CALM      30.06S
PORT FOURCHON* CLEAR     64  52  63 NW6       30.08F

$$

LAZ041-044-053-054-310600-
SOUTHWEST LOUISIANA

CITY           SKY/WX    TMP DP  RH WIND       PRES   REMARKS
LAKE CHARLES   CLEAR     53  51  93 CALM      30.09S
LAFAYETTE      CLEAR     56  47  71 CALM      30.09R
PATTERSON      CLEAR     54  52  94 CALM      30.09S
SALT POINT       N/A     61  52  72 N3        30.07R
NEW IBERIA     CLEAR     54  49  83 CALM      30.09S
CHENAULT AIRPK CLEAR     54  51  91 CALM      30.09F

$$

LAZ027-028-310600-
CENTRAL LOUISIANA

CITY           SKY/WX    TMP DP  RH WIND       PRES   REMARKS
FORT POLK      CLEAR     51  49  91 NW2       30.09S
ALEXANDRIA INT CLEAR     50  47  89 CALM      30.08S
ALEXANDRIA     PTCLDY    49  47  93 CALM      30.09R

$$

LAZ001-002-310600-
NORTHWEST LOUISIANA

CITY           SKY/WX    TMP DP  RH WIND       PRES   REMARKS
SHREVEPORT     CLEAR     54  49  83 CALM      30.09S
BARKSDALE AFB  PTCLDY    51  49  90 CALM      30.09S
DTN SHREVEPORT CLEAR     55  50  83 CALM      30.09F

$$

LAZ014-016-310600-
NORTHEAST LOUISIANA

CITY           SKY/WX    TMP DP  RH WIND       PRES   REMARKS
MONROE         CLEAR     52  50  93 CALM      30.08F
TALLULAH       CLEAR     46  44  93 CALM      30.07F

$$




USA.gov is the U.S. government's official web portal to all federal, state and local government web resources and services.